Location: Unspecified
(34.7500°N, 0.0000°E)
Time: 08:09:37
(UTC+00:00)

Cosmos 2360 Rocket - Visible Passes

Search period start: 04 April 2026 00:00
Search period end: 14 April 2026 00:00
Orbit: 832 x 844 km, 71.0° (Epoch: 29 March)

Date Brightness Start Highest point End Pass type
(mag) Time Alt. Az. Time Alt. Az. Time Alt. Az.
4 Apr 2.1 20:26:53 10° SSW 20:32:30 84° WNW 20:38:09 10° NNE visible
4 Apr 5.1 22:16:03 10° WNW 22:17:19 11° NW 22:18:34 10° NW visible
5 Apr 2.1 20:10:46 10° SSW 20:16:23 90° NNW 20:22:02 10° NNE visible
5 Apr 5.1 21:59:12 10° WNW 22:01:07 12° NW 22:03:01 10° NNW visible
6 Apr 4.9 05:08:40 10° N 05:13:10 24° ENE 05:17:39 10° ESE visible
6 Apr 2.1 19:54:40 10° SSW 20:00:15 84° ESE 20:05:55 10° NNE visible
6 Apr 5.1 21:42:33 10° WNW 21:44:56 13° NW 21:47:19 10° NNW visible
7 Apr 4.9 04:52:41 10° N 04:57:01 22° ENE 05:01:20 10° ESE visible
7 Apr 2.1 19:38:34 10° SSW 19:44:09 78° ESE 19:49:48 10° NNE visible
7 Apr 5.1 21:25:59 10° W 21:28:44 14° NW 21:31:31 10° NNW visible
8 Apr 5.0 04:36:41 10° N 04:40:51 21° ENE 04:44:59 10° ESE visible
8 Apr 2.1 19:22:28 10° SSW 19:28:02 72° ESE 19:33:40 10° NNE visible
8 Apr 5.1 21:09:29 10° W 21:12:34 15° NW 21:15:39 10° NNW visible
9 Apr 5.1 04:20:43 10° NNE 04:24:41 19° ENE 04:28:38 10° ESE visible
9 Apr 2.2 19:06:24 10° S 19:11:56 66° ESE 19:17:32 10° NNE visible
9 Apr 5.0 20:53:02 10° W 20:56:23 16° NW 20:59:45 10° NNW visible
10 Apr 5.1 04:04:46 10° NNE 04:08:31 18° NE 04:12:15 10° E visible
10 Apr 2.2 18:50:20 10° S 18:55:50 61° ESE 19:01:22 10° NNE visible
10 Apr 5.0 20:36:36 10° W 20:40:13 17° NW 20:43:50 10° NNW visible
11 Apr 5.2 03:48:49 10° NNE 03:52:21 17° NE 03:55:50 10° E visible
11 Apr 5.0 20:20:13 10° W 20:24:02 18° WNW 20:27:54 10° NNW visible
12 Apr 5.2 03:32:56 10° NNE 03:36:11 15° NE 03:39:24 10° E visible
12 Apr 4.9 20:03:51 10° WSW 20:07:52 20° WNW 20:11:56 10° N visible
13 Apr 5.3 03:17:03 10° NNE 03:20:00 14° NE 03:22:56 10° E visible
13 Apr 2.2 04:58:54 10° NNW 05:04:33 75° WSW 05:10:11 10° SSE visible
13 Apr 4.9 19:47:30 10° WSW 19:51:42 21° WNW 19:55:57 10° N visible
